Powrót do katalogu

SL-14 DEB

AktywnyPO
NORAD 26024·DEBRIS·🇷🇺 Russia

Wystrzelony Sep 28, 1991 z Plesetsk Cosmodrome

Loading…

Następne Przeloty (najbliższe 24 godziny)

TLE

ŚwieżeSource: Space-Track

Epoka: Sep 13, 2026, 19:07 UTC

1 26024U 91068AK  26256.79685069  .00000619  00000-0  42420-2 0  9999
2 26024  82.7009   8.9367 0284705 178.3651 337.6299 12.34937704583513

Śledź SL-14 DEB w czasie rzeczywistym z AllMySat

Download on the App Store